Regional Weather Roundup
Issued by NWS Huntsville, AL

Home | Current Version | Previous Version | Text Only | Print | Product List | Glossary On
Versions: 1 2 3 4 5 6 7 8 9 10 11 12 13 14 15 16 17 18 19 20 21 22 23 24 25 26 27 28 29 30 31 32 33 34 35 36 37 38 39 40 41 42 43 44 45 46 47 48 49 50
000
ASUS44 KHUN 031310
RWRHUN

WEATHER ROUNDUP FOR THE TENNESSEE VALLEY
NATIONAL WEATHER SERVICE HUNTSVILLE AL
800 AM CDT SUN MAY 03 2015

ALZ001>004-031400-
NORTHWEST ALABAMA

CITY           SKY/WX    TMP DP  RH WIND       PRES   REMARKS
SHOALS AIRPORT SUNNY     58  53  84 SE3       30.15R
SHOALS TVA RES   N/A     54 N/A N/A MISG        N/A
$$

ALZ005>007-016-031400-
NORTH CENTRAL ALABAMA

CITY           SKY/WX    TMP DP  RH WIND       PRES   REMARKS
DECATUR AP     SUNNY     59  54  83 CALM      30.15R
HUNTSVILLE AP  SUNNY     60  53  77 E5        30.15R
HUN NWS/UAH      N/A     62  51  66 S2          N/A
MERIDIANVILLE  SUNNY     55  46  71 CALM      30.15R
REDSTONE ARSN  SUNNY     60  53  80 S3        30.14R
VINEMONT AP    FAIR      58  53  84 CALM      30.17R
$$

ALZ008>010-031400-
NORTHEAST ALABAMA

CITY           SKY/WX    TMP DP  RH WIND       PRES   REMARKS
ALBERTVILLE    SUNNY     61  57  88 CALM      30.15R
FORT PAYNE     SUNNY     54  46  76 CALM      30.16S
SCOTTSBORO HCN   N/A     52 N/A N/A MISG        N/A
VALLEY HEAD      N/A     52 N/A N/A MISG        N/A
$$

TNZ076-096-097-031400-
SOUTHEASTERN MIDDLE TENNESSEE

CITY           SKY/WX    TMP DP  RH WIND       PRES   REMARKS
TULLAHOMA      SUNNY     57  48  72 CALM      30.16R
WINCHESTER     SUNNY     57  52  82 CALM      30.16R
$$

...SURROUNDING SITES...

CITY           SKY/WX    TMP DP  RH WIND       PRES   REMARKS
ATLANTA        SUNNY     66  51  58 W3        30.17R
ANNISTON       SUNNY     57  51  80 E5        30.17R
BIRMINGHAM     SUNNY     60  52  74 SW5       30.17R
CHATTANOOGA    SUNNY     58  51  78 CALM      30.18R
CORINTH        FAIR      57  52  82 CALM      30.12R
DALTON         SUNNY     54  52  94 CALM      30.18R
GADSDEN        SUNNY    N/A N/A N/A CALM      30.15R
GOLDEN TRNGL   SUNNY     59  54  82 SE5       30.12R
HALEYVILLE       N/A     57  56  97 MISG      30.17R
JACKSON TN     PTSUNNY   57  52  83 CALM      30.11R
LEWISBURG      FAIR      54  49  83 CALM      30.13R
MEMPHIS        MOSUNNY   63  52  67 S5        30.09R
NASHVILLE      MOSUNNY   58  50  75 CALM      30.14R
OXFORD MS      LGT RAIN  61  48  63 S7        30.12S
ROME           SUNNY     55  51  86 CALM      30.17R
SAVANNAH       SUNNY     55  32  41 S3        30.12S
TUPELO         SUNNY     60  53  77 CALM      30.13R
TUSCALOOSA     SUNNY     59  53  80 CALM      30.15R
$$

...GULF COAST WEATHER...

CITY           SKY/WX    TMP DP  RH WIND       PRES   REMARKS
GULFPORT       SUNNY     64  57  78 CALM      30.12R
PASCAGOULA     SUNNY     63  59  87 CALM      30.13R
MOBILE         MOSUNNY   65  58  78 NE3       30.14R
GULF SHORES    SUNNY     64  58  82 CALM      30.13R
PENSACOLA      SUNNY     67  59  75 N5        30.13R
DESTIN         SUNNY     67  58  72 N6        30.14R
PANAMA CITY    SUNNY     65  56  73 E6        30.16R
APPALACHICOLA  SUNNY     70  59  68 NE6       30.14R
$$



USA.gov is the U.S. government's official web portal to all federal, state and local government web resources and services.